Погода в Вырубове

Россия / Тамбовская область     53°06′00″N   40°56′34″E
темп.,
°C
ветер,
м/с
пор.,
м/с
влажн.,
%
обл.,
%
осадки,
мм/ч
давл.,
гПа
погр.,
м
27 сентября, пн
пн2700:00+9с5988100 0.1 1008715
03:00+8с61194100 0.2 1010498
06:00+9с71291100 0.2 1012622
09:00+9с71384100 0.2 1014837
12:00+10ссв5972100 0.0 1016849
15:00+11с576946 0.0 10161011
18:00+10с5981100 0.1 1017410
21:00+9с5988100 0.3 1018499
28 сентября, вт
вт2800:00+8св5887100 0.6 1019606
03:00+7св5986100 0.7 1021648
06:00+6св5790100 0.1 1023747
09:00+6св6892100 0.3 1024897
12:00+6св6878100 0.1 1026933
15:00+6св5772100 0.1 10281118
18:00+7всв586481 0.0 1029670
21:00+4ссв347721 0.0 103155
29 сентября, ср
ср2900:00+3ссв34800 0.0 103263
03:00+2ссв35820 0.0 103387
06:00+1ссв368589 0.0 1033108
09:00+6ссв476526 0.0 1034427
12:00+9св454826 0.0 10331120
15:00+10ссв4543100 0.0 10321392
18:00+7с3658100 0.0 1033122
21:00+5св35666 0.0 103483
30 сентября, чт
чт3000:00+4св22715 0.0 103416
03:00+3ссв227359 0.0 103511
06:00+3ссв22765 0.0 103520
09:00+7св23605 0.0 1036293
12:00+10ссв22475 0.0 10351050
15:00+12ссв22445 0.0 10351374
18:00+8ссв22585 0.0 103511
21:00+7св116683 0.0 103510
1 октября, пт
пт100:00+6св116872 0.0 103610
03:00+5сз11735 0.0 103610
06:00+4ссз22805 0.0 103610
09:00+9ссз22665 0.0 1037256
12:00+12ссз225253 0.0 1036990
15:00+14ссз22475 0.0 10351187
18:00+10ссз22625 0.0 103513
21:00+9ссз22685 0.0 103610